Regional Weather Roundup
Issued by NWS

Home | Current Version | Previous Version | Graphics & Text | Print | Product List | Glossary On
Versions: 1 2 3 4 5 6 7 8 9 10 11 12 13 14 15 16 17 18 19 20 21 22 23 24 25 26 27 28 29 30 31 32 33 34 35 36 37 38 39 40 41 42 43 44 45 46 47 48 49 50
000
ASUS43 KLOT 260010
RWRIL

ILLINOIS REGIONAL WEATHER ROUNDUP
NATIONAL WEATHER SERVICE CHICAGO/ROMEOVILLE IL
700 PM CDT FRI JUL 25 2014

NOTE: "FAIR" INDICATES FEW OR NO CLOUDS BELOW 12,000 FEET WITH NO
SIGNIFICANT WEATHER AND/OR OBSTRUCTIONS TO VISIBILITY.

* THESE STATIONS ARE NOT UNDER NWS QUALITY CONTROL. THEY ALSO MAY NOT
  REPORT WEATHER SUCH AS PRECIPITATION OR FOG.

ILZ001-002-007-009-015-016-024-260100-
NORTHWEST ILLINOIS

CITY           SKY/WX    TMP DP  RH WIND       PRES   REMARKS
MOLINE         CLOUDY    72  64  76 SE7       29.88S
6HR MIN TEMP:  65; 6HR MAX TEMP:  76; 6HR PCP:  0.06;

STERLING*      CLOUDY    66  61  82 SE6       29.92S
SAVANNA*       CLOUDY    68  61  76 SE10      29.90S
$$

ILZ003-004-008-010-011-017-018-260100-
NORTH CENTRAL ILLINOIS

CITY           SKY/WX    TMP DP  RH WIND       PRES   REMARKS
ROCKFORD       CLOUDY    70  60  70 S14       29.93F
6HR MIN TEMP:  68; 6HR MAX TEMP:  71;

FREEPORT*      CLOUDY    66  61  82 S9        29.93F
ROCHELLE*      CLOUDY    67  59  74 S8        29.93F
DE KALB*       CLOUDY    67  59  75 S9        29.94F
PERU*          CLOUDY    69  60  74 SE10      29.93F
$$

ILZ005-006-012>014-019>023-260100-
NORTHEAST ILLINOIS

CITY           SKY/WX    TMP DP  RH WIND       PRES   REMARKS
CHICAGO-OHARE  MOSUNNY   73  57  57 SW14      29.92F
6HR MIN TEMP:  72; 6HR MAX TEMP:  75;

CHICAGO-MIDWAY MOSUNNY   74  60  61 S9        29.93F
6HR MIN TEMP:  73; 6HR MAX TEMP:  77;

AURORA         CLOUDY    71  59  65 S9        29.94F
6HR MIN TEMP:  70; 6HR MAX TEMP:  73;

LANSING*       MOSUNNY   73  59  61 SW6       29.94F
JOLIET*        MOSUNNY   71  58  62 SW5       29.95S
WAUKEGAN       PTSUNNY   71  58  63 S12       29.91F
6HR MIN TEMP:  70; 6HR MAX TEMP:  75;

DUPAGE AIRPORT PTSUNNY   71  59  65 S9        29.93S
6HR MIN TEMP:  70; 6HR MAX TEMP:  74;

KANKAKEE*      SUNNY     72  60  65 S6        29.95S
WHEELING       SUNNY     74  58  57 S10       29.93F
6HR MIN TEMP:  73; 6HR MAX TEMP:  77;

MORRIS*        PTSUNNY   72  61  67 S6        29.94F
ROMEOVILLE*    SUNNY     72  58  62 SW9       29.94F
NORTHERLY ISL    N/A     72  58  61 S9          N/A
$$

LMZ740>746-260100-
SOUTHERN LAKE MICHIGAN

STATION/POSITION SKY/WX   TEMP    WIND        PRES    VSBY  WAVE
                          AIR SEA DIR/SP/G                  HT/PER
                          (F)     (DEG/KT/KT) (MB)    (MI)  (FT/S)
SOUTHERN BUOY              65 62  160/  4/  6 1013.4F         1/ 4
WAUKEGAN HARBOR            72     200/  7/ 10   N/A
HARRISON CRIB              70     190/ 11/ 12   N/A
BURNHAM HARBOR             73     190/  8/ 12   N/A
CALUMET HARBOR             72     200/  8/ 12 1012.4F
MICHIGAN CITY              71     170/  9/ 12   N/A
MICHIGAN CITY 6N           70 68  180/  8/ 10   N/A           1/ 3
ST. JOSEPH                 69 66  180/  8/ 10   N/A           1/ 3
$$

ILZ025>027-034>036-040-047-049-050-058-095>099-260100-
WEST-CENTRAL ILLINOIS

CITY           SKY/WX    TMP DP  RH WIND       PRES   REMARKS
QUINCY         SUNNY     77  64  64 S6        29.85S
GALESBURG*     CLOUDY    72  64  76 E5        29.89S
MACOMB*        CLOUDY    73  64  74 S5        29.89F
JACKSONVILLE*  SUNNY     77  62  59 S3        29.90R
PITTSFIELD*    SUNNY     76  64  64 S5        29.87S
$$

ILZ028>032-037-038-041>044-048-051>054-059>061-260100-
CENTRAL ILLINOIS

CITY           SKY/WX    TMP DP  RH WIND       PRES   REMARKS
PONTIAC        PTSUNNY   72  63  73 S3        29.95S
DECATUR        SUNNY     72  61  68 SW5       29.95R
PEORIA         CLOUDY    73  62  68 E5        29.92S
6HR MIN TEMP:  65; 6HR MAX TEMP:  75; 6HR PCP:  0.04;

LACON*         CLOUDY    69  61  76 SE7       29.92S
LINCOLN*       SUNNY     73  62  66 CALM      29.91S
SPRINGFIELD    SUNNY     77  58  51 CALM      29.92R
6HR MIN TEMP:  63; 6HR MAX TEMP:  77; 6HR PCP:  0.18;

TAYLORVILLE    SUNNY     72  59  64 E5        29.91R
$$

ILZ033-039-045-046-055>057-062-063-260100-
EAST-CENTRAL ILLINOIS

CITY           SKY/WX    TMP DP  RH WIND       PRES   REMARKS
CHAMPAIGN      SUNNY     71  59  65 SE5       29.96R
DANVILLE*      CLOUDY    70  60  70 CALM      29.93S
RANTOUL*       SUNNY     73  58  59 SE5       29.97R
MATTOON        SUNNY     71  60  68 S7        29.94R
PARIS*         SUNNY     72  62  71 SE5       29.96R
$$

ILZ079-100>102-260100-
SOUTHWEST ILLINOIS

CITY           SKY/WX    TMP DP  RH WIND       PRES   REMARKS
ALTON          SUNNY     75  64  69 S13G18    29.88F
BELLEVILLE     SUNNY     76  64  66 VRB3      29.87F
CAHOKIA*       SUNNY     78  63  59 S9        29.87F HX  80
SPARTA*        MOSUNNY   73  63  68 S16       29.91F
$$

ILZ064>066-069>071-074>076-080>082-084>086-088>090-092>094-260100-
SOUTH-CENTRAL ILLINOIS

CITY           SKY/WX    TMP DP  RH WIND       PRES   REMARKS
CARBONDALE     PTSUNNY   76  62  62 SW14      29.90F
6HR MIN TEMP:  75; 6HR MAX TEMP:  78;

CAIRO*         CLOUDY    78  64  61 S6        29.93F HX  80
EFFINGHAM*     SUNNY     71  57  60 SE3       29.93S
MARION         PTSUNNY   75  64  69 S13G20    29.90F
MT. VERNON     MOSUNNY   73  61  64 SW9       29.93R
CENTRALIA*     MOSUNNY   77  60  55 S8        29.91R
SALEM*         SUNNY     75  64  69 S8        29.91S
METROPOLIS*    CLOUDY    76  58  53 S6        29.91F
$$

ILZ067-068-072-073-078-083-087-091-260100-
SOUTHEAST ILLINOIS

CITY           SKY/WX    TMP DP  RH WIND       PRES   REMARKS
LAWRENCEVILLE  MOSUNNY   74  61  63 SW3       29.96R
FLORA*         MOSUNNY   72  63  72 CALM      29.94R
FAIRFIELD*     MOSUNNY   73  64  73 S5        29.93R
HARRISBURG*    PTSUNNY   74  63  67 S8        29.92S
ROBINSON*      MOSUNNY   75  63  67 SW6       29.96R
CARMI*         PTSUNNY   75  63  64 SW7       29.92R
$$

ABBREVIATIONS USED IN REMARKS
   TC - TEMPERATURE IN CELSIUS
  WCI - WIND CHILL INDEX
   HX - HEAT INDEX
  VSB - VISIBILITY
$$



USA.gov is the U.S. government's official web portal to all federal, state and local government web resources and services.